Regional Weather Roundup
Issued by NWS State College, PA

Home | Current Version | Previous Version | Graphics & Text | Print | Product List | Glossary On
Versions: 1 2 3 4 5 6 7 8 9 10 11 12 13 14 15 16 17 18 19 20 21 22 23 24 25 26 27 28 29 30 31 32 33 34 35 36 37 38 39 40 41 42 43 44 45 46 47 48 49 50
000
ASUS41 KCTP 240610
RWRCTP

REGIONAL WEATHER ROUNDUP
NATIONAL WEATHER SERVICE STATE COLLEGE PA
100 AM EST TUE JAN 24 2017

Note: "fair" indicates few or no clouds below 12,000 feet with no
significant weather and/or obstructions to visibility.

* = STATION THAT DOES NOT REPORT PRECIPITATION /E.G. RAIN...SNOW...ETC/
    THUNDER OR FOG.

PAZ002>004-007>009-013>016-020>023-029>032-240700-
WESTERN PENNSYLVANIA

CITY           SKY/WX    TMP DP  RH WIND       PRES   REMARKS
ERIE           LGT RAIN  36  33  89 NE12      29.65F FOG
MEADVILLE      CLOUDY    40  37  89 SW6       29.60F FOG
FRANKLIN*        N/A     36  32  87 CALM      29.62S
NEW CASTLE     LGT RAIN  37  36  96 CALM      29.63F
BEAVER COUNTY  NOT AVBL
BUTLER*        MOCLDY    36  32  87 CALM      29.64R
PITTSBURGH INT DRIZZLE   36  36 100 NE7       29.61S
PITTSBURGH     CLOUDY    35  32  88 N7        29.59S FOG
INDIANA*       CLOUDY    34  34 100 CALM      29.60F FOG
LATROBE        CLOUDY    32  32 100 N5        29.60S FOG
WASHINGTON CO* CLOUDY    36  34  93 N5        29.60S
$$

PAZ004>006-010>012-017>019-024>028-033>037-041-042-045-046-049>053-240700-
CENTRAL PENNSYLVANIA

CITY           SKY/WX    TMP DP  RH WIND       PRES   REMARKS
BRADFORD       LGT SNOW  32  32 100 CALM      29.57F VSB 1
DUBOIS         LGT SNOW  33  31  92 N6        29.56F VSB 3/4
CLEARFIELD     LGT SNOW  33  33 100 N3        29.56F FOG
JOHNSTOWN      LGT SNOW  31  31 100 N5        29.52F FOG
ALTOONA        LGT SNOW  33  32  96 N8        29.55S FOG
STATE COLLEGE  LGT SNOW  32  32  99 NE5       29.56S
WILLIAMSPORT   LGT SNOW  34  32  92 W7        29.56F FOG
SELINSGROVE    LGT SNOW  34  33  96 N7        29.55F FOG
FT INDIANTOWN  LGT RAIN  37  37 100 N9        29.50F
CAPITAL CITY   LGT RAIN  37  33  85 N8        29.51F
HARRISBURG     DRIZZLE   39  35  86 VRB7      29.50F
YORK           CLOUDY    36  36 100 N9        29.49F
$$

PAZ038>040-043-044-047-048-054-055-060>062-067>071-240700-
EASTERN PENNSYLVANIA

CITY           SKY/WX    TMP DP  RH WIND       PRES   REMARKS
SCRANTON       LGT RAIN  34  34 100 NE6       29.50F FOG
MOUNT POCONO   MIX PCPN  32  29  88 E21G29    29.43F FOG
ALLENTOWN      RAIN      36  31  82 NE16G26   29.44F
QUAKERTOWN*    CLOUDY    37  36  93 NE10G18   29.43S
READING        LGT RAIN  37  36  96 N8        29.47F
LANCASTER      CLOUDY    38  35  89 N15       29.47F
COATESVILLE    MIX PCPN  37  36  93 N12       29.43F
POTTSTOWN      LGT RAIN  37  35  92 N10       29.44F FOG
BLUE BELL      CLOUDY    36  34  93 N8        29.40F
DOYLESTOWN     LGT RAIN  38  36  92 NE16G25   29.40F
WILLOW GROVE   NOT AVBL
NORTH PHILA    LGT RAIN  39  36  89 N17G26    29.40F
PHILADELPHIA   CLOUDY    39  35  86 N18G31    29.39F
$$



USA.gov is the U.S. government's official web portal to all federal, state and local government web resources and services.